ONEWEB-0087 (45451 NORAD) Tracking and Keplerian Element Data

This shows tracking and keplerian element data for the satellite.

Feedback or suggestion? Click here.




ElementValue
Catalog45451
NameONEWEB-0087
Epoch Orbit159
Epoch Day93.91667824
Epoch Year2020
RAAN134.6
Inclination87.3998
Eccentricity0.0024121
Argument of Perigee261.3794
Mean Anonmoly197.9365
Mean Motion15.34853201
Decay Rate0.00040936
L11 45451U 20020AD 20093.91667824 .00040936 00000-0 11955-2 0 9995
L22 45451 87.3998 134.6000 0024121 261.3794 197.9365 15.34853201 1598

Live tracking and technical data element details for ONEWEB-0087 (NORAD 45451). ONEWEB-0087 can be tracked NOW for your location showing map with azimuth and elevation plus other details from your city location.

Track the satellite on the map from your city or location and see movement details for azimuth, elevation, latitude, longitude, range, height, and movement on the map or in text.







IsCatalogInMostPopularTable: catalog: 45451, numindb: 3
Update: records affected: 1



GetName: 45451 ONEWEB-0087

Hit Count: updated at: Mon, 06 Apr 2020 10:56:34 GMT